Wind_Speed
19 22 14 10 11 10 6 5 4 4 6 6 8 9 9 12 11 12 13 12 14 15 15 15 16 16 17 18 18 20 20 21 21 22 21 23 26 28 28 26 26 28 29
14 14 6 11 13 10 7 5 4 4 5 6 8 8 11 10 14 13 12 14 13 15 16 16 17 17 18 18 17 17 18 20 19 17 15 10 15 22 27 31 33 34 28
12 10 7 10 9 7 6 6 5 5 5 6 8 9 10 11 11 12 15 13 15 16 15 16 17 17 18 19 18 16 16 16 17 19 13 5 7 7 14 17 22 29 30
7 5 4 5 4 6 6 7 7 7 6 6 7 8 10 12 12 14 14 16 14 15 14 14 16 16 16 19 18 17 15 16 15 17 20 22 19 10 9 20 25 25 22
3 1 1 2 2 7 8 8 9 8 7 7 6 8 9 11 12 13 14 14 12 11 13 13 13 12 11 15 18 15 16 16 16 16 16 17 18 19 10 10 10 20 25
3 3 3 3 2 5 9 9 10 10 8 8 7 8 10 11 12 12 13 13 12 11 11 12 11 11 12 11 14 14 14 16 17 17 17 16 13 11 11 9 10 12 19
5 6 5 5 6 7 8 10 11 11 9 8 8 9 10 10 11 11 10 13 11 10 12 12 11 11 11 13 12 15 14 15 16 17 17 18 19 19 19 17 11 10 21
7 8 9 11 10 9 9 10 11 12 9 9 9 9 9 9 11 10 11 11 11 10 10 11 12 13 13 13 15 15 15 15 16 17 18 18 20 20 20 19 15 11 11
9 10 13 14 12 11 10 10 12 12 10 10 9 9 9 9 11 11 11 11 11 10 10 11 12 12 12 13 14 15 15 16 17 18 18 19 19 19 20 21 20 16 12
12 11 13 16 17 18 18 15 12 11 11 10 9 8 9 10 11 12 12 13 12 12 11 12 13 12 12 12 12 13 15 17 17 18 18 19 18 19 19 20 22 23 20
15 14 15 18 18 19 19 19 13 12 12 10 9 9 9 10 11 12 12 13 13 13 12 12 13 13 13 13 12 12 14 16 18 17 17 20 19 20 20 20 22 23 23
13 13 17 18 17 15 12 9 11 12 11 10 9 9 9 10 11 12 13 12 13 13 12 13 13 13 13 12 12 13 13 13 14 15 16 18 18 19 18 19 21 23 24
14 12 13 13 15 15 13 11 11 11 11 10 9 10 10 10 10 11 11 12 13 13 13 12 13 13 13 13 13 11 13 14 16 17 18 20 18 18 18 19 20 22 25
13 12 11 12 13 14 13 13 12 11 11 10 11 10 10 10 11 11 11 11 11 13 12 12 13 13 13 13 12 12 15 17 17 19 20 20 19 19 17 18 19 20 21
13 12 14 11 15 13 12 12 13 11 11 11 12 12 10 10 10 11 11 12 12 12 12 13 13 13 12 11 10 13 16 18 21 21 21 21 21 21 21 21 21 17 15
13 14 14 16 17 15 13 12 12 11 11 14 15 12 11 11 11 11 11 12 13 13 13 13 13 13 12 12 12 13 15 19 20 21 21 20 21 21 19 19 17 17 17
15 17 16 16 19 17 17 15 13 11 12 15 16 14 13 13 14 12 12 12 12 12 12 13 13 13 13 12 14 14 15 18 15 16 15 16 15 16 15 17 19 18 14
19 18 18 21 21 23 22 18 15 13 14 16 16 15 15 16 15 14 14 13 13 13 13 12 12 13 12 12 14 15 16 16 15 12 12 13 13 11 15 17 19 16 15
21 24 25 24 23 23 23 21 17 16 15 17 16 17 17 17 15 15 15 14 13 13 13 13 14 13 13 12 13 13 14 15 15 13 11 10 13 15 17 15 15 15 13
23 25 25 23 22 21 20 19 17 18 19 17 17 17 17 19 18 17 16 15 15 15 14 16 17 16 17 11 11 12 12 13 13 11 10 9 12 16 17 16 13 13 7
23 23 21 20 21 21 18 17 16 19 21 19 19 18 19 22 22 19 17 16 16 15 16 16 15 15 15 13 10 11 10 10 12 12 12 11 13 13 14 13 13 11 9
19 19 18 19 19 18 15 16 18 23 21 20 19 21 21 21 20 20 18 17 15 15 15 15 15 13 14 13 11 9 11 11 9 11 12 13 13 13 11 12 12 13 9
16 17 16 19 18 17 15 17 24 20 21 17 18 18 19 21 21 17 16 15 15 15 13 12 12 12 11 12 11 11 11 12 11 8 11 14 14 11 8 9 10 9 10
16 18 18 17 18 18 18 19 23 21 19 20 20 18 17 17 19 20 20 18 17 16 16 15 14 13 11 11 10 10 9 9 10 10 12 12 15 14 10 9 6 6 7
18 18 18 19 21 22 22 22 23 21 20 19 19 18 18 18 18 22 22 21 23 21 17 15 13 11 11 11 10 9 9 8 9 14 13 11 9 9 9 7 6 6 6
22 20 22 22 25 25 24 22 25 24 22 21 20 19 18 16 17 17 18 22 26 24 25 24 19 17 16 12 12 12 12 12 11 9 10 10 8 8 7 6 6 5 5
Wind_Direction
280 271 240 198 230 234 222 241 267 293 312 315 318 316 312 313 311 309 309 311 310 308 305 298 294 289 282 279 277 276 275 265 259 266 264 265 266 267 266 265 261 252 251
301 281 233 210 222 234 230 246 271 289 304 309 311 309 310 308 308 309 310 311 313 311 307 300 294 289 290 285 281 280 279 275 267 264 271 272 269 259 251 249 250 254 256
306 267 189 216 223 238 246 252 271 283 297 305 311 314 313 310 313 312 311 311 313 311 309 303 297 291 291 287 283 279 278 278 274 264 256 274 257 291 280 270 254 246 249
357 57 170 185 229 258 259 265 273 278 288 296 305 311 309 307 309 307 307 312 314 312 313 308 302 291 287 294 284 279 275 271 272 270 265 265 272 282 289 285 290 291 290
20 9 223 183 295 291 269 264 265 265 271 282 290 298 297 299 304 305 309 314 317 320 323 316 308 306 294 289 290 284 282 278 276 274 276 275 273 267 273 284 279 278 282
338 328 316 297 277 257 262 259 258 261 259 266 278 283 290 298 301 308 313 320 318 322 328 331 321 301 295 296 303 288 281 278 279 284 282 280 278 282 287 287 286 283 283
264 277 270 296 305 291 278 266 259 263 263 271 283 289 290 293 295 303 309 314 308 314 319 327 318 311 299 294 293 285 280 282 279 277 275 274 272 273 278 283 286 285 285
288 281 295 302 303 295 287 278 268 267 265 271 278 281 286 290 293 297 299 301 295 296 306 317 312 310 302 289 286 279 275 273 270 268 269 272 273 276 278 278 284 286 283
326 308 300 293 282 281 290 280 262 258 258 261 270 277 285 287 289 295 293 292 288 287 297 310 300 303 304 302 300 288 279 275 274 275 274 270 271 271 272 275 277 279 284
318 305 298 289 278 276 285 290 273 263 260 258 267 278 287 292 295 297 295 292 298 294 294 296 298 295 299 297 294 287 284 286 276 271 269 272 274 275 273 273 273 271 275
321 312 305 298 291 289 286 289 279 262 257 257 266 275 284 291 293 293 295 298 298 301 293 291 292 290 288 290 291 291 286 281 286 280 278 277 278 279 276 276 277 275 274
319 313 308 302 296 292 288 272 258 251 251 253 261 271 279 282 288 293 296 299 298 298 296 292 290 291 291 290 289 287 288 289 292 291 291 289 284 287 284 281 284 284 278
325 326 323 314 305 298 290 279 264 253 245 241 250 264 273 279 286 290 294 296 295 295 296 296 297 298 298 297 297 286 294 292 285 280 277 277 275 277 281 285 284 289 285
325 330 330 323 308 300 292 288 277 259 244 240 244 251 260 266 274 282 285 286 287 290 294 294 296 296 296 297 295 303 304 300 294 290 283 279 274 269 271 277 281 287 294
325 323 327 324 311 302 298 292 277 258 242 241 246 252 254 258 268 277 282 286 286 286 288 292 293 292 293 294 293 303 304 304 302 296 291 283 276 272 274 276 278 286 291
317 318 314 315 313 301 299 294 278 260 249 248 251 253 252 259 262 267 277 286 289 290 289 289 290 293 294 293 301 302 302 304 303 302 298 292 287 281 279 282 278 282 284
320 319 314 313 305 296 290 288 283 264 248 251 253 251 251 252 253 258 264 268 271 276 278 284 285 287 291 296 305 306 305 302 301 327 312 304 290 286 289 295 292 284 274
318 314 311 311 308 307 301 287 282 266 256 253 253 252 249 249 255 258 261 266 271 274 277 276 279 286 289 296 310 314 311 308 306 304 316 330 323 315 321 307 297 291 271
314 310 309 309 310 305 302 295 281 273 260 256 253 252 247 248 248 249 257 262 266 269 271 276 281 283 283 294 304 319 311 311 310 309 311 331 342 336 332 324 307 292 257
313 312 313 313 302 305 306 300 284 276 265 262 256 255 249 246 244 249 253 255 256 261 269 274 278 280 280 283 292 309 308 306 312 311 312 318 337 339 342 337 331 319 303
316 317 313 309 309 312 307 292 285 273 271 268 262 256 247 247 250 248 246 249 254 261 267 269 273 275 278 276 283 293 304 293 311 307 316 323 331 333 347 349 345 340 318
325 326 319 316 314 311 305 293 286 294 288 281 276 274 262 252 247 242 241 241 242 247 254 261 265 265 264 268 270 276 294 297 292 297 304 309 318 327 329 347 348 345 344
325 327 324 317 319 318 303 287 290 298 296 285 278 272 267 259 252 247 251 252 247 252 261 259 262 266 260 266 267 272 281 292 297 292 294 303 305 312 317 327 347 355 358
325 326 324 321 319 325 320 306 299 295 288 281 278 273 260 248 246 244 238 236 237 238 242 244 247 250 248 247 253 265 277 286 294 300 301 298 297 296 299 317 339 359 1
322 321 315 312 314 319 318 318 313 303 284 276 274 269 263 258 252 243 237 236 240 236 236 238 240 247 252 256 251 266 274 284 296 305 301 290 293 306 311 320 328 353 12
318 321 322 321 318 316 314 314 314 308 291 278 275 263 255 251 247 253 258 254 253 246 245 243 244 247 249 250 259 269 275 279 285 298 286 287 292 292 302 315 325 341 0
Height
772 774 777 787 798 799 798 798 799 798 798 797 795 793 792 790 789 788 786 784 782 780 778 775 773 772 770 768 766 764 763 761 762 761 757 755 755 754 753 752 751 749 749
776 774 779 787 795 797 797 797 798 797 797 796 795 793 791 788 787 785 784 782 780 778 776 774 771 769 767 766 764 762 760 759 758 756 755 751 748 747 745 744 744 743 743
780 776 782 790 793 795 795 795 796 796 795 794 793 791 789 787 785 783 781 779 778 776 773 771 769 767 766 764 762 760 758 757 755 755 753 749 743 741 738 736 736 735 736
783 781 785 786 790 792 793 795 794 794 793 792 790 789 786 784 783 780 778 776 774 772 770 768 766 764 763 761 760 758 756 755 753 752 750 748 747 745 739 738 733 731 730
788 789 789 787 787 792 792 792 791 790 790 789 788 786 784 783 780 778 776 773 771 769 767 765 763 761 759 758 757 756 754 753 751 749 748 746 744 743 740 735 733 731 729
788 789 790 789 784 786 789 788 788 787 787 786 785 783 781 780 778 775 773 771 769 767 765 762 761 760 757 755 755 754 753 751 749 748 746 744 743 740 738 735 733 729 727
785 786 786 786 785 786 786 786 785 784 784 784 783 781 779 777 775 773 770 768 766 764 762 759 758 757 756 753 752 751 749 748 747 745 744 742 740 739 737 735 731 728 725
785 785 785 785 784 784 784 783 782 781 781 780 780 778 776 774 773 770 768 766 764 761 759 757 756 754 753 751 749 747 746 744 742 741 740 739 737 736 735 733 730 724 721
786 785 784 783 782 781 779 778 776 776 777 777 776 774 773 771 769 767 765 764 761 758 756 753 753 751 750 748 746 744 742 740 739 738 736 734 732 732 730 729 728 725 719
783 781 780 778 777 776 775 774 773 773 773 773 772 771 769 768 767 765 763 761 759 756 753 752 751 748 746 745 742 739 737 736 734 733 732 731 729 727 726 725 724 721 717
784 781 778 774 772 771 770 770 771 770 769 769 768 767 765 765 764 762 761 759 757 754 752 750 748 746 744 742 740 737 734 732 730 729 727 725 725 723 721 719 718 716 714
783 780 776 773 771 768 766 764 764 764 764 765 765 764 763 762 761 760 758 757 755 753 750 747 745 743 741 739 737 734 732 729 727 725 723 721 720 717 715 714 712 711 708
780 777 773 771 769 766 764 762 760 760 760 760 760 760 760 759 758 757 755 754 752 750 747 744 742 740 738 736 733 731 728 726 724 721 719 717 716 713 712 710 708 706 702
779 775 771 768 765 762 761 759 758 757 757 757 756 755 755 755 754 752 751 749 747 746 744 742 740 738 735 733 730 729 726 723 720 718 715 712 710 707 705 704 701 699 696
777 774 769 765 763 759 757 756 754 754 753 753 752 752 751 750 749 748 747 746 744 742 740 739 737 734 731 729 726 724 723 720 717 713 710 707 705 703 701 699 695 692 689
774 771 767 763 760 757 754 752 750 750 750 749 748 747 746 746 745 743 743 743 742 740 738 735 733 731 729 726 723 721 717 715 712 708 705 701 699 697 695 693 690 688 685
771 767 763 760 756 754 751 749 747 746 745 743 742 742 742 741 739 739 738 736 735 734 733 732 730 727 726 724 721 718 715 710 706 703 700 697 694 692 690 688 685 683 679
769 765 760 756 754 750 747 745 743 741 740 739 738 737 736 736 736 735 734 733 732 731 729 726 724 723 721 720 717 716 712 708 705 700 698 695 692 689 686 684 680 678 675
768 763 759 755 751 748 744 741 739 737 735 733 733 733 732 731 730 729 729 729 728 727 725 724 722 719 715 716 713 711 709 706 703 700 696 694 692 689 685 679 676 674 670
767 761 756 753 749 745 741 737 734 733 730 728 727 727 726 725 724 724 723 723 723 721 720 718 716 714 713 710 710 709 706 703 701 698 695 692 690 688 684 680 675 671 668
763 759 754 750 746 743 739 735 731 728 726 723 721 720 719 719 718 718 718 718 718 717 715 715 712 712 710 708 705 707 702 700 697 696 695 692 689 686 683 679 677 672 669
758 755 751 747 744 740 737 734 730 725 723 721 718 717 715 714 713 713 711 711 711 710 709 709 708 705 706 706 703 701 703 700 695 693 692 690 688 685 682 679 676 674 670
757 753 749 744 740 737 735 730 724 722 719 716 713 711 711 711 709 710 711 711 710 709 707 705 704 703 702 702 701 699 698 698 694 690 689 688 687 683 681 679 676 674 672
755 752 748 743 738 735 732 728 722 719 716 712 710 707 705 702 703 702 701 701 701 701 701 699 698 697 696 695 695 696 694 693 691 689 688 684 685 683 679 678 675 673 673
753 750 747 742 737 732 728 724 719 715 710 706 704 702 701 699 697 695 694 693 692 693 693 693 694 695 694 693 693 692 691 689 688 687 684 682 682 680 680 677 676 673 671
751 746 743 740 735 730 725 720 716 711 706 701 698 695 692 690 689 689 688 686 685 685 685 686 686 686 687 689 690 690 689 688 686 683 682 681 680 679 678 676 675 674 672